G4RHR Weather Reports


time (UTC)temp
C
wind
direction
speed
KPH
gust
KPH
rain 1hr
cm
rain 24hr
cm
rain mn
cm
humidity
%
barometer
mb
20260507090212 12 79 4.8 11.3 0.00 0.05 0.00 70 1015.7
20260507085101 12 81 3.2 9.7 0.00 0.05 0.00 69 1015.6
20260507084412 12 63 4.8 9.7 0.00 0.05 0.00 71 1015.6
20260507083300 12 33 3.2 8.0 0.00 0.05 0.00 69 1015.6
20260507082401 12 60 1.6 6.4 0.00 0.05 0.00 70 1015.6
20260507081501 12 76 3.2 9.7 0.00 0.05 0.00 69 1015.5
20260507080601 12 96 3.2 6.4 0.00 0.05 0.00 71 1015.5
20260507075701 12 84 4.8 11.3 0.00 0.05 0.00 71 1015.4
20260507074801 12 52 3.2 8.0 0.00 0.05 0.00 71 1015.4
20260507073901 12 55 4.8 9.7 0.00 0.05 0.00 72 1015.3
20260507073000 12 60 4.8 12.9 0.00 0.05 0.00 73 1015.2
20260507072100 11 64 6.4 11.3 0.00 0.05 0.00 75 1015.2
20260507071201 11 60 4.8 11.3 0.00 0.05 0.00 77 1015.2
20260507070300 11 38 4.8 8.0 0.00 0.05 0.00 80 1015.2
20260507065401 10 37 3.2 8.0 0.00 0.05 0.00 82 1015.2
20260507064503 10 39 3.2 8.0 0.00 0.05 0.00 85 1015.2
20260507063603 9 24 3.2 8.0 0.00 0.05 0.00 89 1015.1
20260507062700 8 32 4.8 8.0 0.00 0.05 0.00 91 1015.1
20260507061800 7 29 3.2 8.0 0.00 0.05 0.00 93 1015.1
20260507061111 7 9 1.6 4.8 0.00 0.05 0.00 93 1015.1
20260507060001 6 10 1.6 4.8 0.00 0.05 0.00 93 1015.1
20260507055100 6 2 3.2 4.8 0.00 0.05 0.00 93 1015.0
20260507054201 6 360 1.6 4.8 0.00 0.05 0.00 93 1015.0
20260507053301 5 360 1.6 3.2 0.00 0.05 0.00 93 1015.0
20260507052403 5 360 1.6 4.8 0.00 0.05 0.00 93 1014.9
20260507051500 5 360 1.6 4.8 0.00 0.05 0.00 93 1014.9
20260507050813 5 360 0.0 3.2 0.00 0.05 0.00 93 1014.8
20260507045705 5 360 0.0 3.2 0.00 0.05 0.00 92 1014.8
20260507044800 5 360 0.0 4.8 0.00 0.05 0.00 92 1014.6
20260507043900 5 360 0.0 1.6 0.00 0.05 0.00 91 1014.5
20260507043001 5 360 0.0 1.6 0.00 0.05 0.00 91 1014.5
20260507042100 5 360 0.0 3.2 0.00 0.05 0.00 91 1014.4
20260507041203 5 360 1.6 3.2 0.00 0.05 0.00 92 1014.4
20260507040300 5 360 1.6 4.8 0.00 0.05 0.00 92 1014.4
20260507035612 5 360 1.6 4.8 0.00 0.05 0.00 92 1014.4
20260507034501 5 360 1.6 6.4 0.00 0.05 0.00 92 1014.2
20260507033811 5 360 1.6 4.8 0.00 0.05 0.00 92 1014.2
20260507032701 5 360 3.2 8.0 0.00 0.05 0.00 92 1014.2
20260507031801 5 360 3.2 6.4 0.00 0.05 0.00 91 1014.2
20260507031113 5 360 3.2 6.4 0.00 0.05 0.00 91 1014.2
20260507030000 5 360 3.2 4.8 0.00 0.05 0.00 91 1014.2
20260507025101 5 360 3.2 8.0 0.00 0.05 0.00 91 1014.1
20260507024200 5 360 1.6 8.0 0.00 0.05 0.00 91 1014.1
20260507023300 6 360 3.2 4.8 0.00 0.05 0.00 91 1014.1
20260507022401 5 360 3.2 6.4 0.00 0.05 0.00 91 1014.1
20260507021500 5 360 1.6 6.4 0.00 0.05 0.00 91 1014.1
20260507020815 5 360 1.6 4.8 0.00 0.05 0.00 90 1014.0
20260507015703 6 360 1.6 4.8 0.00 0.05 0.00 91 1013.9
20260507014800 6 360 1.6 4.8 0.00 0.05 0.00 90 1013.9
20260507013900 6 360 1.6 4.8 0.00 0.05 0.00 90 1013.8
20260507013001 6 360 3.2 4.8 0.00 0.05 0.00 90 1013.8
20260507012312 6 360 1.6 4.8 0.00 0.05 0.00 90 1013.8
20260507010300 6 360 1.6 4.8 0.00 0.05 0.00 89 1013.8
20260507005614 6 360 3.2 6.4 0.00 0.05 0.00 89 1013.8
20260507004711 6 360 3.2 6.4 0.00 0.05 0.00 89 1013.8
20260507003601 6 360 3.2 4.8 0.00 0.05 0.00 89 1013.8
20260507002701 6 360 1.6 4.8 0.00 0.05 0.00 89 1013.8
20260507002013 6 360 1.6 4.8 0.00 0.05 0.00 88 1013.9
20260507001115 6 360 3.2 4.8 0.00 0.05 0.00 89 1013.8
20260507000213 7 360 3.2 6.4 0.00 0.05 0.00 88 1013.9
20260506235100 7 360 3.2 6.4 0.00 0.05 0.05 88 1013.9
20260506234200 7 14 1.6 3.2 0.00 0.05 0.05 88 1013.9
20260506233300 7 15 1.6 4.8 0.00 0.05 0.05 88 1013.9
20260506232400 7 15 1.6 4.8 0.00 0.05 0.05 88 1013.9
20260506231501 7 15 1.6 4.8 0.00 0.05 0.05 87 1013.8
20260506230601 7 19 3.2 4.8 0.00 0.05 0.05 87 1013.9
20260506225700 7 40 1.6 4.8 0.00 0.05 0.05 87 1013.8
20260506224801 7 42 1.6 4.8 0.00 0.05 0.05 87 1013.8
20260506223902 7 42 1.6 4.8 0.00 0.05 0.05 87 1013.8
20260506223211 8 43 3.2 4.8 0.00 0.05 0.05 86 1013.7
20260506222100 8 44 1.6 3.2 0.00 0.05 0.05 86 1013.7
20260506221200 8 44 1.6 3.2 0.00 0.05 0.05 85 1013.7
20260506220301 8 44 1.6 3.2 0.00 0.05 0.05 85 1013.6
20260506215400 8 44 1.6 4.8 0.00 0.05 0.05 84 1013.5
20260506214501 8 44 3.2 8.0 0.00 0.05 0.05 84 1013.4
20260506213815 8 41 3.2 8.0 0.00 0.05 0.05 84 1013.4
20260506212701 9 33 3.2 6.4 0.00 0.05 0.05 84 1013.5
20260506211800 9 30 3.2 6.4 0.00 0.05 0.05 83 1013.4
20260506211112 9 38 3.2 6.4 0.00 0.05 0.05 84 1013.4
20260506210000 9 45 3.2 8.0 0.00 0.05 0.05 83 1013.4
20260506205101 10 55 4.8 11.3 0.00 0.05 0.05 82 1013.3
20260506204205 10 53 3.2 8.0 0.00 0.05 0.05 82 1013.3
20260506203511 10 50 4.8 8.0 0.00 0.05 0.05 82 1013.3
20260506202614 10 50 4.8 12.9 0.00 0.05 0.05 81 1013.2
20260506201501 10 58 4.8 9.7 0.00 0.05 0.05 81 1013.1
20260506200601 10 64 4.8 8.0 0.00 0.05 0.05 80 1013.1
20260506195701 10 61 6.4 16.1 0.00 0.05 0.05 79 1013.0
20260506194800 10 61 8.0 17.7 0.00 0.05 0.05 79 1013.0
20260506193900 10 64 8.0 16.1 0.00 0.05 0.05 79 1012.8
20260506193001 10 56 6.4 12.9 0.00 0.05 0.05 79 1012.8
20260506192100 10 56 6.4 12.9 0.00 0.05 0.05 80 1012.7
20260506191412 10 53 6.4 14.5 0.00 0.05 0.05 79 1012.7
20260506190301 10 62 6.4 14.5 0.00 0.05 0.05 79 1012.6
20260506185617 10 58 6.4 14.5 0.00 0.05 0.05 79 1012.6
20260506184501 10 55 6.4 12.9 0.00 0.05 0.05 80 1012.4
20260506183812 11 50 4.8 12.9 0.00 0.05 0.05 80 1012.4
20260506182700 11 53 6.4 14.5 0.00 0.05 0.05 80 1012.2
20260506181803 11 60 4.8 12.9 0.00 0.05 0.05 81 1012.1
20260506180901 10 13 3.2 6.4 0.00 0.05 0.05 82 1012.0
20260506180001 11 8 1.6 6.4 0.00 0.05 0.05 85 1012.0
20260506175100 11 11 3.2 6.4 0.00 0.05 0.05 86 1011.9
20260506174411 11 12 3.2 6.4 0.00 0.05 0.05 85 1011.8
20260506173300 11 13 3.2 4.8 0.00 0.05 0.05 84 1011.8
20260506172400 11 30 4.8 12.9 0.00 0.05 0.05 79 1011.7
20260506171501 11 34 3.2 12.9 0.00 0.05 0.05 80 1011.6
20260506170815 11 26 1.6 6.4 0.00 0.05 0.05 83 1011.6
20260506165700 11 12 3.2 6.4 0.00 0.05 0.05 83 1011.7
20260506164801 11 21 3.2 6.4 0.00 0.05 0.05 84 1011.6
20260506163900 11 12 3.2 6.4 0.00 0.05 0.05 83 1011.6
20260506163001 11 38 3.2 9.7 0.00 0.05 0.05 83 1011.6
20260506162101 11 51 6.4 12.9 0.00 0.05 0.05 82 1011.5
20260506161203 11 49 6.4 12.9 0.00 0.05 0.05 83 1011.5
20260506160300 11 63 8.0 17.7 0.00 0.05 0.05 81 1011.5
20260506155401 12 72 8.0 16.1 0.00 0.05 0.05 79 1011.5
20260506154500 12 71 8.0 16.1 0.00 0.05 0.05 76 1011.4
20260506153601 12 57 4.8 14.5 0.00 0.05 0.05 76 1011.4
20260506152700 13 49 3.2 8.0 0.00 0.05 0.05 76 1011.4
20260506152014 13 45 3.2 9.7 0.00 0.05 0.05 76 1011.4
20260506150900 13 55 6.4 12.9 0.00 0.05 0.05 77 1011.4
20260506150005 13 53 6.4 12.9 0.00 0.05 0.05 77 1011.3
20260506145101 12 17 4.8 12.9 0.00 0.05 0.05 78 1011.4
20260506144413 12 3 4.8 9.7 0.00 0.05 0.05 79 1011.4
20260506143300 12 10 4.8 12.9 0.00 0.05 0.05 79 1011.3
20260506142401 11 15 6.4 14.5 0.00 0.05 0.05 80 1011.4
20260506141500 11 353 6.4 16.1 0.00 0.05 0.05 80 1011.5
20260506140812 11 360 8.0 19.3 0.00 0.05 0.05 81 1011.4
20260506135915 11 357 9.7 17.7 0.00 0.05 0.05 81 1011.4
20260506134800 11 25 8.0 17.7 0.00 0.05 0.05 83 1011.4
20260506134109 11 9 8.0 17.7 0.00 0.05 0.05 84 1011.5
20260506133001 11 25 6.4 16.1 0.00 0.05 0.05 85 1011.4
20260506132101 11 29 8.0 16.1 0.00 0.05 0.05 85 1011.4
20260506131201 11 22 8.0 17.7 0.00 0.05 0.05 83 1011.3
20260506130301 11 355 9.7 19.3 0.00 0.05 0.05 83 1011.3
20260506125403 11 357 8.0 17.7 0.00 0.05 0.05 83 1011.2
20260506124503 11 1 6.4 14.5 0.00 0.05 0.05 84 1011.2
20260506123601 11 357 6.4 14.5 0.03 0.05 0.05 86 1011.2
20260506122913 11 346 6.4 14.5 0.03 0.05 0.05 87 1011.2
20260506121800 11 3 6.4 14.5 0.03 0.05 0.05 87 1011.2
20260506120901 11 8 6.4 16.1 0.05 0.05 0.05 86 1011.2
20260506120000 11 8 6.4 16.1 0.05 0.05 0.05 88 1011.1
20260506115101 11 7 6.4 11.3 0.05 0.05 0.05 88 1011.0
20260506114200 11 32 6.4 12.9 0.05 0.05 0.05 87 1011.0
20260506113300 11 40 6.4 16.1 0.05 0.05 0.05 87 1011.0
20260506112401 11 56 8.0 17.7 0.05 0.05 0.05 86 1011.0
20260506111500 11 61 11.3 19.3 0.05 0.05 0.05 83 1011.0
20260506110600 12 37 8.0 19.3 0.03 0.03 0.03 82 1011.0
20260506105701 12 7 8.0 19.3 0.00 0.00 0.00 77 1010.9
20260506104800 12 341 9.7 20.9 0.00 0.00 0.00 73 1010.8
20260506103901 12 350 9.7 17.7 0.00 0.00 0.00 72 1010.8
20260506103213 12 354 9.7 20.9 0.00 0.00 0.00 72 1010.8
20260506102100 13 346 8.0 16.1 0.00 0.00 0.00 71 1010.7
20260506101413 13 337 8.0 17.7 0.00 0.00 0.00 71 1010.7
20260506100300 12 353 9.7 20.9 0.00 0.00 0.00 71 1010.7
20260506095613 12 353 9.7 19.3 0.00 0.00 0.00 72 1010.7
20260506094501 12 348 9.7 22.5 0.00 0.00 0.00 74 1010.7
20260506093603 12 355 11.3 24.1 0.00 0.00 0.00 73 1010.7
20260506092701 12 3 11.3 20.9 0.00 0.00 0.00 74 1010.6
20260506091800 12 352 11.3 19.3 0.00 0.00 0.00 73 1010.5
20260506090900 12 2 9.7 19.3 0.00 0.00 0.00 74 1010.5